Wind_Speed
35 36 37 36 34 32 31 32 33 32 31 29 28 26 24 23 22 21 19 17 14 10 5 3 6 9 10 11 10 8 9 10 14 24 26 19 14 17 18 18 21 23 20 21 24 26 27 28 30 32 33 33 33 34 36 38 38 38 37 35 35 38 39 38 37 35 32 29 29 31 32 30 26 25 25 26 26 25 24 23 21 20 21 21 22 22
34 35 36 36 35 33 31 30 31 32 31 28 28 26 24 22 21 21 20 18 15 12 9 5 1 5 7 8 8 7 9 10 12 19 24 22 17 15 16 17 18 19 20 24 26 26 26 27 30 30 32 34 33 34 34 34 36 38 40 38 35 37 40 40 37 35 32 30 31 32 32 32 29 28 28 27 27 26 25 25 23 22 22 21 21 22
34 34 35 35 35 34 32 31 30 31 30 28 28 27 25 24 21 20 20 20 17 14 11 9 7 3 2 6 7 9 11 11 12 15 19 22 20 15 12 13 17 17 17 22 26 28 25 25 28 30 32 34 33 33 33 32 32 36 40 39 37 39 41 41 38 36 34 32 34 35 35 34 31 31 31 30 28 27 27 25 24 23 23 23 22 22
34 34 34 35 35 34 33 32 30 29 30 29 28 28 27 26 24 21 20 19 19 17 14 11 9 8 5 1 4 7 10 11 12 14 17 19 19 18 15 13 15 15 13 17 22 27 26 24 27 29 32 35 34 34 33 32 32 34 39 39 39 42 44 43 40 38 36 36 37 37 37 37 34 34 33 32 30 29 28 26 24 25 24 26 26 26
33 34 34 34 33 33 33 32 30 28 29 29 28 29 28 27 26 23 20 18 18 18 17 15 11 9 8 6 2 3 6 9 11 14 16 18 18 18 17 16 17 15 14 16 20 24 25 25 26 28 32 36 35 35 34 33 33 33 37 40 40 43 45 44 41 39 39 39 38 37 39 40 38 37 35 33 33 32 30 26 25 27 25 25 29 31
31 33 34 33 33 32 32 33 31 28 27 28 28 29 28 27 26 25 22 19 18 18 18 17 14 11 9 7 5 3 2 4 8 12 14 16 17 18 18 18 18 17 17 19 21 22 24 27 28 27 31 36 37 37 37 36 35 33 35 39 41 43 45 44 42 41 41 40 39 38 39 40 40 39 37 35 36 36 35 29 27 29 27 25 27 29
30 31 32 33 32 32 31 32 31 29 26 26 27 27 27 27 27 26 25 21 20 19 18 17 17 15 12 9 7 6 4 3 4 7 10 14 16 17 18 19 19 18 17 20 23 23 23 26 30 29 30 36 39 39 39 39 38 36 36 38 40 42 44 45 43 42 42 42 41 39 39 40 41 41 39 39 39 39 38 34 30 30 31 28 27 27
31 29 29 31 32 31 30 31 31 30 27 25 24 25 26 27 27 27 26 24 22 20 19 17 17 17 16 13 10 8 6 5 5 5 6 9 15 18 18 20 21 20 17 20 22 22 22 24 27 30 32 37 42 41 41 42 42 41 41 41 42 43 45 46 45 44 44 43 43 41 40 41 43 43 42 42 43 41 39 37 34 34 35 34 32 30
35 29 27 29 31 31 30 30 31 30 29 26 24 24 24 25 26 26 26 26 24 22 20 19 17 15 16 16 14 12 9 7 6 7 8 6 10 16 19 20 20 20 19 19 21 22 22 22 24 29 32 35 42 45 43 44 46 45 45 44 45 47 47 48 48 48 47 46 45 44 42 43 44 45 44 44 46 44 41 40 38 37 39 41 40 37
37 33 28 28 30 31 30 29 29 30 30 28 25 24 23 24 25 25 26 26 25 23 22 20 18 16 15 16 16 15 13 10 8 7 8 8 7 9 16 20 19 20 21 20 23 26 23 21 23 27 32 35 40 45 47 47 48 49 48 47 47 49 50 50 51 51 51 49 47 46 45 45 46 47 47 47 48 47 46 44 42 41 41 43 45 45
35 36 33 30 29 29 29 28 28 30 30 29 28 26 24 23 23 24 25 25 25 25 23 22 21 18 16 15 15 16 16 16 14 11 8 8 8 8 10 15 18 21 23 22 24 26 24 22 24 25 30 36 41 44 47 49 51 52 51 50 50 50 51 52 53 54 55 55 53 50 48 47 48 49 50 50 49 49 49 49 47 46 45 44 45 47
33 37 37 34 30 28 28 28 28 30 30 30 29 28 26 25 24 24 24 24 25 25 24 24 23 21 18 16 16 16 17 17 17 17 15 12 9 7 8 10 13 16 20 23 24 25 24 24 26 25 26 32 40 44 46 49 51 52 53 53 53 52 52 52 53 55 57 59 58 56 54 53 52 52 53 54 54 53 53 53 53 53 52 50 47 48
32 36 38 38 35 30 28 29 29 30 30 30 30 30 28 26 25 24 24 24 25 25 24 24 25 23 21 19 18 16 16 17 17 18 18 18 16 13 10 8 9 12 15 20 24 27 29 28 27 26 26 29 35 41 45 47 49 51 53 55 56 56 55 55 54 55 57 59 60 60 59 57 56 56 56 57 58 58 58 57 57 57 57 56 54 52
29 32 35 38 38 35 31 30 31 31 30 30 29 29 29 28 27 26 26 26 25 25 25 25 26 25 23 23 20 16 17 18 17 17 18 18 18 17 16 15 12 10 10 14 19 23 26 28 29 29 28 26 28 35 42 46 48 50 52 55 58 59 59 59 57 57 58 59 59 60 60 60 61 61 59 58 59 60 61 61 61 60 59 59 59 58
27 30 33 35 36 38 36 34 34 32 30 30 30 29 30 30 30 28 28 27 26 26 27 27 27 26 26 25 21 16 18 19 18 17 18 19 19 18 16 16 17 16 14 10 13 18 20 21 24 27 28 25 24 28 34 39 44 48 50 54 58 59 61 62 62 60 60 61 61 61 61 62 63 64 64 63 62 62 63 64 64 63 63 62 62 62
30 30 33 34 32 36 40 39 37 34 31 31 31 30 31 32 31 31 31 29 27 27 28 29 29 28 27 26 22 19 20 21 20 18 18 19 20 20 18 16 16 16 17 16 12 13 17 18 19 22 25 26 24 22 23 27 33 40 47 51 56 60 61 64 65 64 63 64 65 64 64 64 64 65 66 67 66 65 65 66 67 67 66 66 65 64
34 32 35 36 32 32 38 42 40 36 35 33 31 31 33 33 32 33 33 32 30 29 29 30 30 30 29 27 25 23 22 22 23 21 20 20 21 21 21 20 18 16 15 15 15 13 14 17 19 21 22 23 23 17 16 20 25 33 42 46 51 56 60 63 65 65 66 67 67 68 68 68 68 67 67 68 67 67 67 67 68 69 68 68 67 65
38 37 36 38 36 31 33 40 41 38 38 36 33 35 37 35 34 34 34 33 33 32 31 32 31 31 32 29 27 26 25 25 25 24 22 22 22 22 23 22 21 19 16 15 14 14 13 15 19 22 21 21 19 14 13 17 23 31 38 41 43 47 54 59 62 64 66 67 67 68 69 69 69 68 68 68 68 68 68 69 69 70 70 70 70 69
43 42 38 38 39 34 30 33 36 38 40 39 38 41 40 36 34 36 37 36 35 34 34 35 33 33 33 32 29 28 27 28 28 27 25 25 24 24 25 25 24 22 20 18 16 15 14 14 16 19 21 20 20 19 15 14 21 31 37 39 40 40 45 52 57 60 63 64 64 66 67 68 68 68 67 68 68 68 69 70 70 71 71 72 73 73
46 45 42 39 40 38 33 32 33 37 42 43 44 44 40 37 36 38 41 39 37 36 36 37 36 35 35 34 32 31 29 30 30 29 28 28 26 25 26 28 27 25 23 21 19 18 17 16 15 17 17 16 20 24 20 11 15 25 31 35 39 41 43 47 51 55 58 60 62 64 65 66 67 68 67 67 67 68 69 70 70 72 72 73 74 75
48 47 44 42 43 41 38 36 35 38 43 43 44 45 43 41 42 44 45 42 39 39 39 38 37 37 38 37 36 34 32 32 32 31 31 31 30 28 27 30 30 27 25 24 23 20 19 18 16 17 17 14 15 22 22 15 16 20 22 28 35 41 44 44 46 50 53 54 56 58 61 63 64 65 66 67 67 68 69 70 70 71 72 73 74 75
52 50 47 44 45 45 43 41 38 39 42 42 42 44 45 46 46 48 48 45 44 43 41 40 38 38 40 40 40 39 36 34 33 32 33 34 33 32 30 31 32 31 28 27 26 24 22 20 18 18 19 17 16 19 23 24 25 27 28 29 32 38 41 42 43 47 49 49 49 51 54 58 61 61 61 62 64 67 68 69 70 71 71 72 73 73
54 55 52 47 46 46 46 46 42 39 41 43 42 43 46 48 48 49 48 48 48 45 43 42 40 40 42 43 43 42 40 37 34 33 34 34 34 34 34 33 33 33 33 31 30 29 26 23 20 19 21 21 20 21 23 25 28 32 36 37 36 37 39 40 41 44 45 45 44 45 49 55 59 58 57 56 58 61 65 67 69 69 70 71 71 71
58 58 55 50 49 48 47 49 47 41 41 44 44 45 48 49 49 50 50 50 49 46 45 45 42 41 44 46 45 44 44 42 37 35 35 35 35 35 36 36 34 34 35 36 34 32 30 28 25 22 22 23 23 23 24 26 27 31 36 40 39 38 38 39 40 41 43 44 44 44 47 52 58 59 57 56 56 57 59 62 65 67 68 68 68 68
61 60 57 53 52 50 47 49 49 45 44 44 44 46 49 50 51 52 53 53 50 48 48 48 46 45 47 48 48 48 47 45 41 38 35 35 35 35 36 37 36 35 36 38 38 36 34 32 30 27 25 26 26 24 23 25 27 29 32 36 39 38 37 38 39 40 43 44 44 43 44 48 54 58 57 56 56 57 57 59 62 64 65 64 64 66
64 63 60 54 53 52 48 48 50 49 48 46 44 47 51 53 54 54 56 55 51 48 49 49 48 49 51 51 49 50 50 48 46 42 37 36 36 36 36 37 37 37 38 39 40 39 37 34 33 31 30 30 28 25 23 24 26 29 30 32 35 38 38 37 37 40 41 41 41 40 41 44 48 52 56 57 58 59 58 58 60 60 59 56 55 60
65 63 60 57 56 54 51 50 52 53 53 49 47 47 50 53 55 56 57 54 50 49 49 49 50 53 54 53 51 51 52 52 50 45 40 37 38 38 38 38 39 39 40 40 41 41 39 37 35 34 33 33 29 26 25 26 27 29 31 31 31 36 40 39 38 38 38 37 36 36 39 42 46 50 53 55 58 60 60 59 58 57 53 50 51 56
69 64 61 62 61 58 56 54 53 56 58 56 53 51 51 53 55 58 57 52 51 52 50 51 55 56 55 54 53 53 53 53 51 46 41 39 40 40 40 41 42 42 42 41 42 42 41 39 37 36 35 36 34 33 32 29 27 30 33 34 32 31 36 41 40 37 34 31 30 35 41 44 47 51 52 51 52 55 57 58 57 56 54 54 56 58
74 69 66 68 67 62 60 57 55 59 62 61 58 56 54 52 53 57 57 53 53 54 52 54 58 56 54 56 57 55 54 54 52 47 44 42 42 42 43 44 45 45 45 43 43 44 44 42 40 38 36 37 38 37 37 35 31 29 32 36 34 32 32 35 39 38 32 25 22 31 42 45 48 52 52 50 49 51 52 53 55 56 56 57 58 58
81 75 73 74 71 66 63 60 57 60 63 61 58 57 56 54 53 56 58 56 54 53 53 55 58 57 57 58 57 55 53 53 53 51 47 46 45 46 46 46 47 48 48 47 47 47 47 46 44 41 38 38 39 39 38 39 37 32 30 34 37 36 32 31 34 39 36 27 23 25 36 45 51 54 55 54 51 49 50 51 52 54 54 55 56 56
85 80 78 79 76 70 66 64 61 60 64 64 60 58 60 59 56 56 58 58 57 56 57 59 59 58 57 56 55 56 55 54 55 54 52 51 50 49 49 50 50 51 51 51 51 50 50 50 48 45 42 40 41 40 39 39 41 37 32 32 37 39 37 34 33 36 39 35 28 24 30 42 51 53 55 55 52 48 50 52 54 55 55 54 55 56
87 84 81 82 80 71 66 67 65 63 66 67 61 58 62 63 58 56 58 59 60 61 61 61 58 55 55 57 57 57 57 57 56 54 54 55 53 51 51 53 54 54 54 53 54 53 52 52 52 49 47 45 43 42 42 41 41 41 38 34 35 40 40 38 34 33 41 42 35 29 30 38 49 52 52 53 52 49 49 51 55 57 59 59 59 59
90 89 86 86 83 74 69 70 69 69 71 67 59 58 62 63 61 59 59 59 61 63 63 62 59 57 58 59 59 58 59 59 58 56 57 58 56 53 53 56 58 57 56 56 56 56 55 54 54 52 50 49 46 44 44 44 42 42 42 38 36 39 41 40 36 32 38 47 45 39 37 40 45 49 50 52 51 47 45 47 51 54 58 60 61 62
95 93 90 90 86 80 77 75 74 76 75 68 63 63 64 63 63 63 60 58 60 62 63 62 59 59 60 59 59 60 60 60 58 58 60 60 57 55 56 59 60 59 59 60 59 58 58 57 56 55 53 52 50 47 46 46 45 44 43 41 38 38 41 41 37 33 35 46 53 51 47 44 43 45 49 51 47 41 40 43 45 48 52 56 59 62
99 97 94 94 92 87 84 82 82 81 76 71 71 71 69 67 68 68 65 61 59 60 62 60 58 58 58 58 60 61 58 58 59 60 63 62 59 57 58 60 61 61 62 62 62 61 60 59 58 57 56 54 52 50 48 47 47 46 44 42 40 38 39 40 37 34 35 41 48 53 53 49 45 46 50 51 46 41 39 40 41 44 47 51 54 58
104 102 98 98 97 94 92 92 88 82 77 76 75 72 71 72 72 72 69 63 59 60 60 59 58 57 57 60 64 60 55 56 61 63 65 63 60 60 60 60 62 64 64 65 65 63 62 61 59 59 58 57 55 53 50 48 48 48 45 43 41 39 38 38 36 34 37 41 43 46 50 51 49 48 49 49 48 45 41 39 41 43 47 49 52 56
108 106 104 103 101 99 98 96 93 88 84 81 77 73 71 72 73 75 73 65 62 63 61 61 61 59 58 63 65 59 55 58 63 65 66 64 61 61 61 62 63 65 66 67 67 66 65 64 61 60 60 60 59 56 53 50 49 49 48 44 42 41 40 39 37 35 38 42 43 43 45 46 47 48 48 50 51 49 45 42 40 42 47 51 53 56
112 110 109 108 105 102 99 95 95 95 87 79 76 75 72 72 74 77 74 67 64 66 64 63 64 62 62 66 66 61 60 64 68 68 68 65 62 61 63 65 66 67 68 69 68 67 68 66 63 62 63 63 63 60 56 53 50 49 50 47 44 42 41 41 40 37 35 38 42 44 44 45 46 47 48 50 51 51 49 45 41 41 45 49 51 54
114 112 112 112 110 107 103 98 95 93 85 77 76 75 72 72 74 77 75 68 65 67 68 67 66 65 66 69 68 65 65 69 71 70 68 66 65 65 66 68 68 69 70 70 68 67 69 68 65 64 65 65 65 63 59 56 52 50 50 49 46 43 41 41 42 37 32 34 38 41 43 44 46 47 47 48 50 51 50 47 43 41 43 45 47 49
108 107 108 110 110 106 104 101 96 91 84 79 78 77 73 72 73 77 76 67 62 65 69 68 69 70 71 71 69 67 68 71 72 70 68 69 69 70 70 70 70 71 71 71 69 68 69 68 67 67 67 68 68 65 62 59 56 52 50 49 47 45 41 40 41 36 30 30 34 37 40 43 47 47 45 45 48 50 50 48 45 43 44 45 45 45
98 99 99 100 101 98 95 95 93 88 82 77 77 77 74 72 75 79 78 72 69 69 70 70 71 73 73 73 72 70 70 71 71 70 70 71 70 71 72 72 72 73 73 71 68 68 69 69 69 69 70 70 69 67 64 61 58 54 50 47 46 45 43 40 40 36 31 29 31 35 38 41 43 42 38 39 45 50 50 49 47 45 43 42 42 44
88 90 89 90 92 89 87 89 88 83 78 75 75 76 75 75 76 78 77 76 75 73 72 73 74 75 75 75 74 73 72 71 70 71 72 72 72 75 77 77 76 75 73 70 68 68 70 71 71 71 72 72 70 68 66 64 61 56 52 47 45 45 45 43 40 38 35 33 33 35 39 41 38 34 32 38 47 52 54 53 48 41 35 33 36 41
81 82 81 83 84 83 84 86 85 79 75 74 74 74 75 74 75 75 75 74 71 70 72 74 77 78 77 76 76 76 74 72 73 75 76 78 79 80 80 80 78 76 74 72 70 70 72 73 73 74 74 73 71 68 67 66 64 60 54 48 45 45 46 45 44 41 38 36 37 40 42 43 39 34 35 43 50 54 55 53 46 37 30 30 34 38
77 77 77 79 81 82 82 83 82 79 77 77 77 77 76 75 75 76 76 74 73 74 75 77 79 80 78 78 77 77 76 76 78 80 81 82 82 82 82 81 78 74 73 72 72 72 74 75 75 75 75 73 71 69 68 67 66 62 57 50 47 46 46 46 46 44 41 40 40 40 41 43 44 42 45 51 55 56 54 49 43 38 35 36 40 43
73 72 74 79 82 82 80 79 80 82 82 81 81 82 81 78 77 76 75 74 74 74 73 74 76 77 77 77 78 77 78 79 79 79 79 80 81 82 80 78 76 74 74 74 75 76 77 77 77 76 74 72 70 69 69 69 67 64 59 54 51 49 47 46 46 46 45 44 42 40 39 43 47 49 53 56 57 57 54 50 46 43 39 38 41 44
70 71 74 79 81 80 77 76 77 80 81 80 82 85 85 82 79 77 76 76 75 73 71 71 72 73 74 75 76 77 79 79 78 78 80 81 82 81 80 78 78 78 78 78 78 78 79 79 78 76 74 72 71 71 71 70 68 64 59 56 55 53 50 49 48 48 48 47 45 42 41 43 46 50 55 59 59 57 54 51 49 46 41 37 37 41
71 72 74 77 80 79 77 76 76 76 75 76 79 83 85 85 82 80 78 77 76 75 75 76 77 78 78 78 80 82 83 83 83 83 83 84 84 83 82 82 81 81 80 79 80 81 81 81 78 75 74 73 73 73 73 71 68 64 59 57 56 55 53 52 51 49 49 50 48 46 44 44 44 47 52 56 57 57 55 54 52 49 44 39 35 37
71 72 73 77 80 80 78 78 77 74 72 73 74 76 80 82 83 81 79 78 78 79 80 82 84 84 85 86 87 88 87 86 86 85 85 86 85 84 83 83 82 82 82 81 82 83 82 81 78 76 75 75 75 75 73 71 68 63 59 57 57 56 55 55 53 51 51 51 51 49 46 46 45 45 47 49 51 52 53 54 55 51 44 38 35 36
72 73 74 78 82 82 80 78 76 74 73 75 75 76 78 80 80 79 78 77 77 78 79 80 81 81 82 84 84 83 83 84 85 85 85 86 85 84 83 84 85 85 84 84 84 83 82 81 79 78 77 76 76 75 73 70 67 63 59 58 57 57 57 57 55 53 52 52 52 50 48 47 46 46 46 47 48 50 50 51 51 49 43 37 35 35
73 74 77 81 83 83 82 80 78 76 76 78 79 78 79 79 77 75 75 74 74 73 74 74 75 75 77 78 79 80 81 83 84 84 84 85 85 86 86 87 88 87 86 86 86 84 82 82 81 80 79 78 76 74 72 69 66 63 60 59 57 57 58 58 56 55 54 53 52 51 49 47 46 46 47 48 48 48 48 47 48 49 45 39 36 36
72 74 77 80 83 84 83 83 82 81 80 80 80 80 79 78 76 75 75 75 75 75 75 75 75 76 77 79 80 82 83 84 85 86 86 86 87 88 89 90 90 89 89 88 87 85 84 83 82 81 80 77 75 73 71 69 66 63 61 60 59 58 58 58 57 56 54 53 53 52 50 48 47 47 48 49 49 48 47 47 48 49 46 40 37 38
Wind_Direction
352 352 352 354 357 1 4 7 9 10 12 15 19 25 29 31 32 32 33 38 43 55 84 163 199 205 209 215 219 230 242 234 207 198 201 206 206 209 212 214 212 212 217 214 211 217 221 221 218 215 214 214 216 216 214 213 211 212 215 215 214 210 208 209 210 212 214 216 215 210 208 208 209 211 209 209 206 201 204 206 209 219 222 222 227 233
348 349 350 351 352 355 359 3 6 8 10 12 13 16 21 25 29 30 29 28 28 32 41 54 118 196 209 219 213 219 237 231 205 195 197 199 201 205 206 211 214 212 219 220 214 214 217 220 217 216 213 207 211 217 218 218 216 215 217 219 217 212 209 209 210 209 210 214 218 216 213 210 210 212 210 209 208 205 206 205 209 218 218 216 221 225
345 345 347 349 349 351 354 359 3 5 6 9 10 11 16 18 21 26 27 23 20 20 21 24 28 42 189 218 216 216 224 218 205 197 197 201 203 211 216 219 218 215 220 223 220 217 218 219 218 219 213 203 208 219 220 221 220 216 215 217 217 213 209 209 208 207 209 214 218 217 213 209 210 213 212 212 211 206 205 208 211 214 214 218 225 226
344 343 344 345 347 348 350 355 359 1 2 5 7 9 12 13 12 17 23 20 16 17 15 12 11 15 25 307 222 216 216 212 208 203 202 203 204 209 219 224 221 218 225 232 229 224 221 218 216 221 217 204 205 215 219 221 221 217 215 215 216 214 210 209 208 208 211 215 218 217 213 210 211 212 212 215 214 208 205 209 211 211 214 221 225 225
343 343 342 342 344 346 348 351 355 357 358 1 3 6 8 9 8 10 15 16 13 14 14 11 4 0 6 4 334 232 219 216 214 211 211 209 208 211 213 219 222 216 220 233 233 227 224 222 217 217 218 210 206 210 217 222 223 220 216 215 217 216 213 211 210 211 214 217 219 219 216 213 212 211 212 214 214 209 206 209 213 215 218 222 223 224
339 340 340 341 342 343 345 347 351 354 355 357 360 2 4 5 6 6 8 11 10 9 10 10 7 1 354 353 351 343 289 235 220 215 217 214 215 217 210 213 220 211 208 223 229 224 222 225 221 214 215 214 211 209 213 220 223 221 219 217 218 220 219 216 214 215 217 220 221 221 219 218 216 214 212 211 211 210 210 212 214 219 222 223 226 227
332 335 336 339 340 340 342 343 346 350 352 354 356 357 -0 2 3 4 4 7 8 5 3 4 7 6 358 353 346 335 330 300 246 219 219 213 213 217 212 213 216 207 206 217 221 220 220 223 221 217 217 216 214 212 212 215 218 219 219 219 219 222 223 222 220 219 220 221 221 221 222 222 221 220 217 213 211 212 215 217 216 221 226 227 232 234
323 328 330 333 336 337 338 339 340 344 347 351 352 353 356 359 1 2 3 4 5 2 359 357 359 2 1 1 359 345 330 316 300 272 250 221 211 214 215 217 211 201 207 218 218 219 223 224 220 219 220 217 215 214 214 215 216 216 217 220 223 225 226 227 225 222 220 221 221 221 222 224 225 224 223 220 217 217 219 221 222 227 229 228 233 236
315 319 323 327 330 332 333 334 335 337 341 344 347 348 350 354 357 0 1 1 2 360 358 356 350 351 357 1 3 1 351 331 310 294 288 266 221 213 215 219 214 204 209 219 220 221 223 225 225 226 225 220 216 215 218 219 218 217 218 220 223 225 228 229 229 226 222 221 221 222 223 225 226 227 226 225 224 225 224 223 226 231 231 229 231 234
311 311 315 320 322 325 326 329 330 331 334 336 339 342 344 347 351 355 358 359 -0 358 357 356 349 342 346 354 358 358 359 355 343 319 301 297 275 233 221 220 220 219 220 221 222 222 223 227 227 227 229 227 222 219 220 222 221 222 223 223 224 225 227 230 230 229 226 222 222 222 224 226 229 229 228 228 229 231 230 228 229 233 234 233 233 233
310 306 308 312 315 317 319 323 325 326 327 328 331 334 337 339 343 347 351 353 355 356 356 357 354 346 338 341 348 350 355 358 357 356 343 317 298 279 249 231 225 226 225 222 222 222 226 235 235 231 231 230 227 225 224 223 223 224 226 227 228 229 229 230 231 231 230 227 225 225 227 229 231 232 231 232 233 235 236 235 234 236 237 238 237 236
312 304 306 307 306 309 312 316 320 321 322 322 323 327 330 331 334 338 342 345 348 350 352 353 355 354 345 337 338 341 347 352 355 357 -0 359 345 315 286 261 247 238 229 222 223 225 232 241 243 243 244 238 232 230 230 227 225 225 227 229 230 232 232 232 232 232 231 230 230 232 234 234 234 234 234 234 235 237 239 239 240 241 241 242 242 240
313 306 306 305 302 304 305 309 314 315 316 317 318 322 323 323 325 329 333 337 340 342 345 346 348 353 353 344 337 335 337 340 347 352 355 -0 4 1 347 316 282 264 247 233 230 232 235 237 236 240 250 250 242 237 235 232 230 230 232 232 231 232 233 233 234 233 232 232 234 236 238 237 236 236 236 236 237 238 239 241 242 243 244 245 245 244
312 309 307 306 305 303 300 303 308 308 309 311 313 316 316 317 319 320 323 329 332 333 335 337 340 345 349 348 343 341 341 336 335 342 345 348 354 359 2 358 346 323 285 254 243 242 239 235 233 236 245 253 252 247 242 237 235 237 239 237 234 235 236 235 236 236 236 236 236 238 239 240 239 239 238 238 239 239 240 241 243 244 246 248 248 248
308 310 308 307 309 305 298 298 301 302 302 304 309 311 310 312 315 313 315 321 324 326 326 329 332 335 341 345 346 346 346 343 336 333 334 336 338 342 348 353 356 355 346 314 265 250 246 242 240 240 239 241 247 250 249 247 244 244 244 242 239 239 239 238 237 238 239 239 240 240 241 241 241 241 241 241 242 242 242 242 244 245 248 250 251 250
304 305 303 303 308 306 298 295 296 297 296 298 303 305 304 308 310 308 310 314 317 318 319 322 325 327 332 339 342 340 339 342 341 336 332 330 329 331 332 335 341 348 353 350 322 279 259 253 253 249 241 237 238 243 254 261 261 256 252 247 244 243 242 240 239 239 239 240 241 242 242 242 242 243 244 244 245 245 244 244 245 246 248 250 252 251
300 299 299 300 304 306 300 295 294 293 292 295 297 297 301 306 306 304 305 308 312 313 312 315 319 321 323 330 334 332 329 332 335 334 332 330 328 328 326 325 327 330 338 344 342 324 291 270 264 260 254 248 242 247 273 279 271 266 262 255 248 245 244 243 242 241 241 241 242 243 243 243 244 245 246 246 247 247 247 246 246 246 247 248 250 250
293 294 296 298 299 302 301 298 297 294 289 290 291 293 299 301 300 301 302 302 307 309 307 308 313 315 317 323 328 325 321 324 326 326 326 327 329 330 328 324 322 322 324 325 328 329 316 295 279 271 267 260 251 256 284 283 267 266 268 264 257 252 247 245 244 243 243 243 244 244 245 245 245 245 245 245 246 247 248 248 248 248 248 248 249 250
289 291 293 294 294 297 299 299 301 298 288 285 290 295 296 294 295 299 298 299 304 305 302 303 308 311 312 318 322 319 316 317 319 320 320 322 326 327 326 323 321 322 322 319 317 317 315 311 300 288 275 264 259 256 259 271 274 274 275 269 263 262 256 248 245 245 245 246 246 246 246 246 246 246 245 245 246 246 247 247 248 249 249 249 250 251
286 289 292 292 290 291 294 296 301 296 287 285 290 292 290 286 290 295 296 298 300 298 296 300 305 306 308 313 316 314 313 313 314 315 315 317 320 322 321 318 319 322 323 319 316 314 311 310 312 310 294 269 257 253 250 269 290 283 283 277 267 264 262 254 247 246 248 248 248 247 247 248 248 248 248 247 247 247 247 247 247 247 248 249 250 250
284 285 288 288 286 288 292 296 296 291 287 286 288 289 287 284 288 292 294 295 293 292 295 298 301 303 306 310 310 310 311 310 310 312 312 313 315 317 316 314 315 320 320 317 315 313 312 309 308 310 308 293 268 255 251 264 273 262 264 271 267 261 258 254 249 249 251 251 251 250 249 249 250 250 250 250 249 249 248 248 248 247 247 248 248 249
282 282 282 281 284 288 291 292 291 288 287 285 283 284 283 283 286 287 289 290 289 291 294 295 299 301 302 305 306 308 309 308 307 309 310 310 312 313 313 312 314 317 317 315 313 311 311 310 306 302 303 304 296 277 262 257 258 250 243 247 257 259 255 251 249 249 251 252 253 252 250 250 251 252 254 253 252 252 251 251 250 250 249 248 248 249
277 278 278 279 282 284 286 288 290 287 283 282 283 281 278 280 282 281 282 283 287 291 292 292 298 299 297 300 304 306 306 305 306 308 307 308 309 311 311 311 313 315 315 314 313 312 310 309 308 303 298 296 297 294 281 268 261 256 248 245 251 257 253 250 250 249 250 253 255 254 251 249 250 252 255 257 257 255 253 253 252 252 252 251 251 251
272 273 274 277 278 279 281 286 290 287 282 283 285 282 277 276 276 277 278 280 285 290 290 291 296 294 292 297 302 303 303 302 303 304 305 306 307 309 309 309 312 313 312 312 312 312 312 311 310 308 301 294 293 295 295 289 279 268 256 250 253 257 252 249 251 252 253 257 258 257 253 250 249 252 256 260 262 261 258 255 254 253 252 252 253 253
268 269 270 273 276 279 281 284 287 285 281 281 280 276 273 272 272 274 276 277 282 287 289 290 290 288 289 294 298 299 299 300 301 300 301 303 304 307 307 308 310 311 309 310 312 313 313 312 310 309 306 301 298 297 298 298 293 285 272 258 255 256 255 252 251 252 254 255 256 256 255 254 253 254 257 261 263 264 262 259 257 256 256 256 256 255
264 266 268 270 274 277 278 280 282 279 276 276 274 272 271 272 272 272 273 276 281 284 285 287 286 285 287 291 293 295 296 298 299 298 299 301 302 304 306 307 310 310 309 310 312 314 314 312 310 309 309 308 304 299 301 303 299 296 290 276 260 252 252 253 252 251 252 253 255 259 263 265 265 262 260 261 262 263 263 263 261 260 260 260 259 257
261 262 266 268 271 273 273 274 277 275 273 272 272 273 273 272 273 272 272 276 280 279 280 283 283 284 285 286 289 291 293 296 297 295 296 300 301 302 304 307 309 308 309 311 313 315 313 311 310 310 310 310 306 300 300 302 300 298 297 293 278 259 251 250 250 251 254 257 262 269 273 276 276 273 266 262 263 263 263 262 261 259 257 254 252 252
260 260 263 265 268 269 270 272 272 271 271 272 272 274 274 272 272 272 272 274 274 274 277 280 281 282 283 283 286 288 291 293 293 292 295 298 299 301 303 306 307 307 308 312 314 315 313 311 311 311 311 310 308 306 304 300 298 300 300 299 294 277 260 251 247 249 257 264 272 281 282 281 281 278 270 265 266 265 263 261 260 257 254 251 250 251
259 259 261 264 266 267 268 269 267 265 266 269 271 272 272 272 272 271 271 271 271 273 276 277 278 280 281 281 284 288 290 291 289 289 293 295 297 301 303 305 305 306 308 311 314 315 314 312 311 312 311 310 308 309 309 304 299 301 304 303 298 290 278 262 248 243 247 252 262 277 280 279 282 281 274 271 271 267 263 260 258 257 254 253 252 252
257 258 260 263 264 265 265 266 264 261 261 264 266 269 271 272 272 270 268 269 271 272 273 273 274 277 279 281 284 287 287 288 288 289 292 294 296 301 304 305 304 305 307 310 312 314 315 314 312 311 311 310 308 308 309 307 304 302 303 305 302 296 289 276 255 239 237 234 232 253 271 276 281 282 277 274 274 269 263 259 256 255 254 252 252 252
256 257 259 261 262 262 264 265 264 261 260 260 263 267 270 271 272 271 268 267 269 270 269 269 272 276 278 280 283 284 285 285 285 287 290 292 295 300 303 304 303 304 306 309 310 311 314 315 313 312 311 310 309 309 307 307 306 305 303 304 306 301 291 283 268 244 234 232 225 233 259 272 277 279 276 275 275 271 266 261 257 255 252 251 252 252
257 257 258 259 260 261 263 264 262 259 256 257 261 266 269 270 271 270 266 264 265 267 268 269 271 273 273 276 279 282 283 283 283 286 288 290 294 299 302 301 301 303 305 307 308 309 312 313 313 312 311 310 310 309 308 307 306 306 306 305 307 304 294 287 279 253 234 232 230 227 240 260 270 273 273 274 274 271 267 263 259 256 252 250 250 250
256 256 256 258 259 259 260 260 260 257 255 257 263 265 265 267 268 266 265 263 263 265 267 268 269 269 270 273 277 279 279 280 283 285 286 287 292 297 299 299 299 302 304 305 306 307 309 311 312 311 310 310 310 309 308 307 307 306 307 306 307 306 298 289 284 266 241 232 231 231 236 250 263 269 271 272 271 268 264 262 260 256 252 250 249 247
254 255 256 257 257 257 258 258 256 254 255 257 261 263 263 264 264 265 265 263 262 263 266 267 268 269 271 273 275 275 277 280 283 284 283 285 290 294 296 297 297 300 302 302 304 306 307 308 309 310 310 309 309 309 308 307 306 305 305 306 306 305 301 293 286 276 254 236 231 235 242 250 258 263 267 269 267 264 262 262 261 257 254 252 250 247
253 254 255 257 257 256 256 256 255 255 257 258 258 260 263 263 262 262 263 262 261 261 264 267 268 269 271 272 272 273 277 280 281 281 280 282 288 292 294 295 295 297 299 300 302 304 304 306 307 308 309 309 308 308 308 306 305 305 304 304 304 303 300 295 285 274 260 245 237 238 241 245 251 259 266 269 269 267 266 265 263 259 256 255 253 250
253 253 253 255 257 257 256 256 256 256 257 257 257 259 261 262 261 261 261 261 260 259 261 264 265 266 269 270 270 272 276 278 278 278 278 281 287 291 291 292 293 295 297 298 300 302 302 303 305 307 308 309 308 307 307 307 305 304 302 301 302 301 298 295 287 273 260 254 249 245 242 243 250 259 266 270 271 271 269 268 267 263 258 257 256 252
252 253 252 253 255 257 257 257 257 256 255 256 258 260 260 260 260 259 260 260 259 258 259 260 261 262 263 266 268 271 273 274 275 275 277 281 285 287 288 289 291 293 295 296 298 299 300 301 304 306 307 307 307 306 306 306 305 303 301 299 299 300 299 296 291 279 266 259 256 252 248 249 254 259 263 268 271 273 271 267 266 264 261 259 259 256
251 252 252 252 253 254 256 256 256 256 256 256 257 257 257 256 255 256 258 258 258 258 258 259 260 260 259 261 265 269 271 272 272 273 276 280 282 282 284 286 289 291 293 295 296 297 298 300 302 304 305 306 306 305 305 306 305 302 301 299 298 298 298 297 294 287 275 263 258 254 252 253 255 258 262 266 271 274 274 270 268 267 264 262 262 260
250 250 251 252 251 252 253 253 253 254 254 253 252 253 253 252 252 254 255 255 256 258 259 259 261 261 261 263 266 270 271 271 271 273 275 277 278 279 281 284 288 291 292 293 295 296 296 298 301 302 303 304 304 304 304 305 304 302 300 298 297 296 296 297 297 292 281 269 263 260 257 257 259 261 262 265 270 274 275 274 273 271 267 265 266 264
248 249 249 250 250 250 251 251 250 250 250 250 250 252 251 249 248 249 251 252 253 256 259 260 262 263 264 266 268 269 270 270 271 272 273 274 275 277 280 283 286 289 290 291 293 293 294 296 299 301 301 302 302 302 303 303 303 302 300 297 296 295 294 295 297 294 285 274 268 263 260 261 263 264 265 269 271 273 275 276 277 274 269 266 266 266
245 245 245 246 247 247 246 247 246 245 245 245 246 248 248 246 245 246 247 249 250 253 258 261 262 263 264 266 267 268 268 268 269 270 270 271 274 277 280 283 286 288 289 290 291 291 292 295 298 299 300 300 301 301 302 303 303 302 300 297 295 293 291 292 294 291 284 277 273 267 262 263 265 265 269 273 271 269 272 277 279 276 271 270 272 272
242 242 240 240 242 241 240 241 241 241 240 240 241 243 243 243 245 247 248 249 250 254 258 260 261 261 261 262 264 265 266 266 267 267 268 271 275 278 281 283 286 287 288 288 288 289 290 293 296 297 298 298 299 299 301 302 303 301 299 296 292 290 289 290 292 289 281 275 274 271 267 266 266 265 266 266 264 265 271 276 276 274 272 273 276 277
239 237 235 234 236 236 235 235 236 236 235 237 239 240 239 241 245 248 249 250 252 253 254 256 257 258 257 258 260 262 264 265 265 266 269 272 275 278 281 283 284 286 286 286 286 287 289 292 294 295 296 297 297 298 300 302 302 301 299 295 289 287 288 289 289 288 283 274 269 269 267 263 259 253 248 251 257 264 269 271 269 265 260 256 257 259
235 234 231 229 230 231 232 232 233 232 231 233 236 237 236 237 240 244 247 249 250 250 251 253 254 255 255 256 259 261 262 263 264 266 269 272 275 278 280 282 283 284 284 284 285 286 288 290 292 293 294 295 295 297 300 302 302 300 298 294 288 285 286 288 289 288 285 278 272 269 264 257 251 246 243 247 255 262 264 264 264 261 256 250 248 250
231 231 227 224 225 227 229 230 230 230 229 230 232 235 235 235 236 239 242 244 245 247 249 251 252 253 254 256 258 260 261 262 264 266 269 272 275 278 280 281 282 282 282 283 284 285 287 289 290 292 293 293 294 297 299 300 300 299 297 293 289 287 286 287 289 288 287 283 277 272 265 257 250 247 246 250 255 258 258 261 265 267 264 257 252 252
227 226 225 222 222 225 228 230 230 230 231 230 231 233 236 236 236 237 238 239 240 242 246 250 252 253 255 256 258 259 260 262 264 267 270 273 275 277 279 279 280 281 282 282 283 284 286 288 289 291 292 293 294 296 298 299 299 298 296 293 290 289 288 287 288 289 289 286 280 274 270 263 255 251 251 252 255 257 259 263 267 269 269 266 258 253
223 223 222 221 221 223 226 229 230 230 231 231 231 233 235 237 238 238 239 239 241 243 247 251 253 254 256 258 259 261 262 263 265 268 270 272 275 276 277 278 280 281 281 281 282 284 286 288 289 290 291 292 294 295 297 297 297 296 295 292 290 290 290 289 289 290 291 289 283 277 273 268 262 258 257 256 258 260 261 264 267 268 268 269 263 252
221 221 220 219 220 221 224 226 228 228 230 232 233 234 236 238 239 240 241 243 245 247 249 251 253 254 256 257 259 260 262 263 265 267 269 272 274 275 276 277 278 279 280 281 283 285 286 287 289 290 291 291 293 294 295 296 295 294 293 291 290 290 290 290 290 292 292 289 285 280 275 271 268 266 263 259 260 261 260 260 265 268 267 267 263 252
220 219 219 219 219 220 222 224 225 225 226 230 233 234 235 237 239 241 242 244 245 246 248 249 251 252 253 255 256 259 260 262 265 267 269 271 272 273 274 276 277 279 280 282 284 285 286 287 288 289 290 291 292 293 294 294 294 293 291 290 290 291 291 291 292 294 293 289 284 280 277 274 271 269 265 261 258 260 261 261 264 267 267 265 262 253
220 219 219 220 219 219 221 223 224 224 224 227 230 232 234 235 236 238 240 241 242 243 245 247 249 251 253 255 257 259 261 263 265 267 268 270 271 272 274 276 277 278 280 283 285 285 286 287 288 289 290 290 291 292 292 293 292 291 289 288 289 290 292 293 294 296 294 288 283 279 276 274 272 268 265 261 257 258 261 263 265 268 268 265 262 257
221 220 220 220 219 219 221 223 225 224 224 226 228 231 233 234 235 237 238 240 242 243 245 248 251 253 255 257 259 260 261 263 264 266 268 269 271 272 274 276 277 278 281 283 284 284 285 286 287 287 289 290 291 291 292 292 291 289 287 287 288 289 291 293 295 296 293 287 282 278 275 273 271 267 263 259 257 256 259 262 265 269 269 265 262 259
Height
10731 10729 10727 10725 10723 10722 10720 10718 10716 10714 10712 10710 10708 10707 10707 10706 10704 10703 10702 10701 10701 10700 10699 10698 10697 10697 10696 10696 10695 10694 10694 10695 10695 10696 10697 10697 10699 10700 10702 10704 10706 10708 10710 10711 10711 10712 10713 10715 10716 10718 10721 10723 10723 10725 10727 10729 10732 10734 10735 10736 10736 10737 10737 10738 10739 10741 10744 10746 10750 10752 10754 10755 10757 10758 10760 10761 10763 10764 10764 10765 10766 10766 10766 10766 10767 10768
10732 10730 10728 10726 10724 10722 10721 10719 10717 10715 10713 10711 10710 10709 10708 10707 10706 10704 10703 10701 10701 10700 10700 10698 10697 10696 10695 10695 10694 10693 10694 10694 10695 10696 10697 10697 10698 10699 10701 10703 10704 10706 10709 10710 10710 10711 10712 10714 10715 10716 10718 10721 10722 10723 10725 10727 10730 10732 10732 10734 10735 10735 10736 10736 10737 10739 10741 10744 10747 10749 10751 10753 10755 10756 10758 10760 10761 10762 10762 10762 10763 10763 10763 10764 10764 10765
10733 10731 10728 10727 10725 10723 10721 10719 10717 10716 10715 10713 10711 10711 10709 10707 10707 10705 10703 10702 10702 10701 10700 10698 10697 10695 10694 10693 10693 10693 10694 10694 10695 10696 10698 10699 10699 10699 10701 10703 10705 10705 10706 10708 10709 10710 10712 10714 10715 10715 10716 10719 10721 10722 10723 10725 10727 10729 10730 10731 10732 10733 10734 10735 10736 10737 10738 10741 10743 10745 10748 10750 10752 10753 10755 10757 10758 10759 10760 10760 10759 10760 10761 10761 10761 10763
10733 10731 10729 10727 10725 10723 10721 10719 10717 10716 10715 10714 10712 10711 10709 10708 10707 10705 10704 10703 10702 10701 10700 10699 10697 10695 10694 10693 10692 10692 10692 10693 10694 10696 10697 10699 10700 10701 10702 10705 10706 10705 10705 10707 10708 10709 10711 10713 10715 10715 10714 10716 10719 10720 10722 10723 10725 10727 10728 10729 10730 10731 10732 10733 10734 10736 10737 10738 10739 10741 10744 10746 10748 10750 10752 10754 10755 10757 10757 10756 10756 10757 10757 10758 10758 10760
10733 10731 10730 10728 10726 10724 10722 10719 10718 10716 10715 10714 10713 10711 10709 10708 10707 10706 10705 10704 10702 10701 10700 10699 10698 10696 10695 10694 10693 10692 10692 10692 10693 10694 10696 10697 10699 10701 10702 10703 10704 10704 10704 10705 10707 10708 10709 10711 10713 10714 10713 10713 10716 10718 10720 10721 10723 10724 10726 10727 10728 10729 10730 10731 10733 10735 10736 10737 10738 10739 10741 10743 10744 10746 10748 10750 10752 10753 10754 10754 10753 10753 10754 10754 10754 10755
10732 10731 10729 10728 10727 10725 10723 10720 10719 10717 10715 10714 10713 10711 10710 10709 10708 10707 10705 10704 10703 10702 10701 10700 10699 10697 10696 10695 10693 10692 10692 10692 10692 10692 10693 10695 10697 10697 10698 10700 10700 10701 10702 10702 10703 10704 10706 10707 10709 10712 10712 10711 10713 10716 10718 10719 10720 10721 10723 10724 10726 10727 10728 10730 10731 10733 10734 10736 10737 10739 10741 10742 10743 10744 10744 10746 10747 10749 10750 10751 10751 10751 10750 10749 10748 10750
10732 10730 10729 10727 10726 10725 10723 10721 10719 10718 10716 10714 10713 10712 10711 10710 10708 10707 10706 10705 10703 10702 10701 10700 10699 10698 10697 10696 10694 10693 10693 10691 10690 10690 10691 10693 10694 10694 10695 10697 10698 10698 10699 10699 10700 10701 10702 10702 10704 10708 10710 10710 10711 10713 10715 10716 10717 10718 10720 10722 10723 10725 10726 10727 10729 10731 10732 10734 10735 10737 10739 10741 10743 10743 10744 10744 10744 10746 10748 10749 10750 10750 10749 10747 10745 10745
10731 10730 10728 10727 10725 10725 10723 10721 10720 10718 10717 10715 10714 10712 10711 10710 10709 10707 10706 10705 10704 10703 10702 10701 10700 10699 10698 10696 10695 10694 10693 10692 10691 10690 10690 10691 10692 10693 10694 10695 10696 10696 10696 10697 10698 10699 10699 10698 10700 10703 10706 10707 10709 10710 10712 10713 10714 10716 10718 10720 10721 10722 10723 10724 10726 10728 10730 10731 10733 10734 10736 10738 10740 10741 10743 10744 10744 10744 10746 10746 10748 10749 10748 10747 10744 10743
10728 10728 10727 10726 10724 10723 10723 10721 10720 10718 10717 10716 10714 10713 10711 10710 10709 10708 10706 10705 10704 10703 10702 10701 10700 10699 10698 10697 10696 10695 10694 10693 10692 10691 10690 10691 10691 10692 10692 10693 10694 10694 10693 10695 10696 10697 10696 10695 10696 10698 10700 10704 10706 10708 10709 10710 10712 10713 10714 10716 10718 10719 10721 10722 10724 10725 10727 10728 10729 10731 10733 10735 10736 10738 10740 10741 10742 10742 10743 10743 10744 10745 10746 10745 10744 10743
10726 10725 10725 10725 10723 10722 10721 10721 10719 10718 10717 10715 10714 10713 10711 10710 10709 10708 10707 10705 10704 10704 10702 10701 10700 10699 10698 10697 10696 10695 10695 10693 10693 10692 10691 10690 10690 10691 10691 10691 10692 10692 10692 10693 10694 10694 10694 10693 10693 10694 10696 10699 10703 10705 10706 10708 10709 10710 10711 10712 10714 10715 10717 10719 10720 10722 10723 10724 10726 10727 10729 10731 10732 10734 10736 10737 10738 10739 10740 10740 10740 10741 10741 10741 10741 10741
10725 10723 10723 10723 10722 10720 10719 10719 10718 10717 10716 10715 10714 10713 10711 10710 10708 10707 10707 10706 10705 10704 10702 10701 10700 10699 10698 10697 10696 10695 10694 10693 10693 10692 10692 10691 10690 10690 10690 10690 10691 10691 10691 10692 10693 10692 10692 10692 10692 10693 10694 10696 10699 10702 10703 10705 10706 10708 10708 10709 10710 10711 10713 10714 10716 10718 10719 10721 10722 10724 10726 10727 10728 10730 10732 10733 10734 10735 10736 10737 10737 10737 10737 10737 10737 10738
10722 10721 10720 10720 10720 10718 10717 10717 10716 10715 10715 10714 10712 10712 10711 10709 10708 10707 10706 10705 10704 10703 10702 10701 10700 10699 10698 10697 10696 10695 10694 10693 10692 10692 10691 10691 10691 10690 10690 10689 10689 10690 10690 10690 10691 10690 10690 10691 10691 10691 10693 10695 10696 10698 10700 10702 10704 10705 10706 10706 10707 10708 10709 10710 10711 10713 10715 10716 10718 10720 10722 10724 10725 10726 10727 10728 10729 10730 10731 10731 10732 10732 10732 10733 10733 10734
10720 10719 10717 10717 10717 10716 10715 10714 10714 10713 10713 10712 10711 10710 10709 10708 10707 10706 10705 10705 10704 10703 10702 10701 10700 10699 10698 10696 10695 10694 10694 10693 10692 10691 10690 10690 10690 10690 10689 10689 10689 10688 10689 10689 10689 10688 10688 10688 10688 10689 10691 10694 10695 10696 10697 10699 10701 10702 10703 10703 10704 10704 10705 10706 10707 10709 10710 10712 10714 10716 10718 10720 10721 10723 10723 10724 10724 10725 10725 10726 10726 10727 10727 10728 10728 10729
10716 10716 10714 10713 10714 10714 10713 10712 10711 10711 10710 10709 10709 10709 10707 10707 10706 10704 10703 10703 10702 10701 10701 10700 10699 10698 10697 10696 10694 10694 10693 10692 10691 10691 10690 10689 10689 10689 10688 10688 10687 10687 10687 10687 10686 10686 10686 10686 10686 10686 10688 10691 10693 10695 10695 10696 10698 10699 10700 10700 10700 10701 10701 10702 10703 10705 10706 10708 10710 10711 10712 10714 10715 10717 10718 10719 10719 10720 10720 10720 10721 10722 10722 10723 10723 10725
10713 10713 10712 10711 10711 10711 10710 10709 10708 10708 10707 10706 10707 10707 10705 10704 10704 10703 10702 10701 10700 10699 10699 10698 10697 10697 10696 10695 10693 10693 10692 10691 10690 10689 10689 10689 10688 10688 10688 10687 10687 10686 10685 10685 10684 10683 10683 10683 10684 10683 10684 10685 10688 10691 10692 10693 10695 10695 10696 10696 10696 10696 10697 10698 10699 10700 10701 10702 10704 10705 10706 10707 10708 10709 10711 10712 10713 10714 10715 10715 10716 10716 10717 10718 10718 10720
10709 10709 10708 10708 10709 10708 10706 10706 10706 10705 10704 10704 10704 10703 10703 10702 10702 10701 10700 10700 10699 10698 10696 10695 10695 10694 10694 10694 10693 10692 10691 10690 10689 10688 10688 10687 10687 10686 10686 10686 10686 10685 10684 10684 10683 10682 10681 10681 10682 10681 10681 10682 10684 10686 10687 10689 10691 10691 10690 10690 10691 10691 10692 10692 10693 10694 10695 10696 10697 10698 10699 10700 10701 10702 10703 10705 10706 10708 10708 10709 10710 10710 10711 10712 10713 10714
10704 10705 10703 10703 10705 10706 10704 10702 10703 10703 10701 10700 10701 10700 10699 10700 10699 10698 10698 10697 10697 10696 10694 10693 10693 10692 10691 10692 10692 10691 10690 10689 10688 10688 10686 10686 10685 10684 10684 10684 10684 10683 10683 10683 10683 10682 10680 10680 10679 10680 10680 10680 10681 10682 10682 10685 10688 10687 10683 10682 10683 10685 10686 10686 10687 10687 10687 10688 10689 10690 10692 10693 10694 10695 10696 10697 10699 10700 10701 10702 10702 10704 10706 10707 10707 10708
10698 10701 10701 10698 10699 10702 10702 10700 10700 10701 10697 10696 10697 10697 10697 10697 10695 10695 10695 10694 10694 10694 10692 10691 10691 10690 10689 10690 10690 10689 10688 10687 10687 10686 10685 10684 10684 10683 10682 10681 10681 10681 10681 10681 10681 10680 10680 10679 10677 10677 10677 10678 10678 10676 10676 10679 10681 10679 10677 10675 10676 10678 10679 10680 10680 10679 10679 10680 10682 10683 10684 10685 10686 10687 10689 10690 10692 10693 10694 10695 10696 10697 10699 10700 10701 10703
10692 10694 10696 10695 10693 10695 10698 10698 10697 10697 10694 10692 10692 10693 10693 10693 10692 10691 10690 10691 10692 10691 10690 10688 10688 10688 10686 10687 10688 10687 10686 10685 10685 10684 10683 10682 10682 10681 10680 10679 10679 10679 10678 10678 10678 10677 10677 10677 10676 10675 10674 10674 10674 10671 10669 10671 10673 10673 10672 10671 10672 10672 10671 10671 10671 10671 10672 10674 10675 10675 10675 10676 10677 10678 10680 10682 10684 10685 10686 10688 10689 10690 10692 10693 10694 10696
10686 10688 10691 10691 10688 10688 10691 10694 10694 10692 10690 10688 10688 10689 10689 10688 10688 10687 10686 10687 10688 10687 10686 10685 10685 10684 10683 10684 10684 10684 10683 10683 10682 10681 10681 10680 10680 10680 10678 10676 10676 10677 10676 10675 10675 10674 10674 10673 10673 10672 10671 10670 10670 10669 10667 10666 10668 10670 10670 10668 10668 10666 10663 10662 10663 10664 10665 10666 10666 10667 10668 10668 10669 10670 10672 10674 10676 10677 10679 10680 10682 10683 10684 10686 10687 10688
10678 10681 10685 10685 10683 10683 10686 10688 10690 10688 10686 10685 10685 10685 10685 10684 10684 10682 10682 10684 10684 10683 10683 10683 10683 10680 10679 10680 10680 10680 10680 10680 10678 10678 10677 10677 10677 10677 10676 10674 10673 10674 10673 10672 10671 10671 10671 10670 10669 10668 10667 10666 10666 10666 10666 10663 10660 10662 10663 10662 10660 10658 10656 10656 10656 10657 10657 10657 10657 10659 10660 10662 10662 10664 10665 10666 10668 10669 10671 10672 10674 10675 10677 10678 10680 10681
10670 10672 10677 10679 10678 10679 10680 10681 10683 10684 10681 10681 10682 10682 10680 10680 10680 10679 10678 10678 10678 10678 10678 10679 10680 10678 10675 10676 10676 10675 10676 10676 10675 10675 10674 10673 10673 10672 10673 10672 10670 10670 10670 10669 10668 10667 10667 10667 10667 10665 10664 10663 10663 10663 10663 10661 10657 10655 10655 10654 10651 10650 10650 10651 10651 10650 10650 10650 10650 10651 10653 10654 10655 10657 10659 10660 10661 10662 10663 10664 10665 10667 10669 10670 10672 10673
10663 10663 10667 10672 10674 10674 10674 10674 10676 10678 10677 10676 10677 10677 10676 10675 10675 10674 10674 10673 10671 10673 10674 10674 10676 10675 10671 10671 10672 10671 10671 10671 10671 10671 10670 10670 10669 10668 10668 10668 10668 10666 10665 10665 10664 10663 10663 10663 10663 10662 10661 10660 10660 10659 10658 10658 10656 10654 10652 10650 10647 10645 10645 10646 10645 10645 10644 10644 10644 10644 10646 10647 10649 10651 10652 10653 10654 10655 10656 10656 10657 10659 10660 10662 10664 10666
10655 10656 10659 10664 10667 10669 10670 10668 10670 10672 10671 10670 10671 10671 10670 10671 10669 10668 10669 10668 10667 10670 10669 10669 10671 10669 10666 10667 10667 10667 10666 10666 10667 10668 10666 10666 10666 10665 10664 10663 10664 10663 10661 10660 10660 10660 10659 10658 10658 10658 10657 10656 10655 10655 10654 10653 10652 10650 10649 10647 10645 10642 10641 10640 10640 10639 10639 10639 10639 10639 10640 10641 10643 10644 10645 10646 10646 10647 10648 10648 10649 10651 10652 10654 10657 10658
10646 10648 10651 10656 10659 10662 10665 10664 10664 10665 10663 10664 10666 10665 10664 10664 10664 10663 10662 10662 10664 10667 10665 10665 10666 10663 10661 10662 10662 10662 10662 10662 10663 10664 10663 10662 10662 10661 10660 10659 10659 10659 10657 10656 10655 10656 10655 10654 10653 10653 10652 10651 10650 10650 10649 10648 10647 10645 10643 10642 10641 10639 10636 10635 10635 10634 10633 10633 10633 10634 10635 10636 10637 10637 10638 10639 10639 10639 10640 10641 10641 10643 10645 10648 10651 10652
10638 10639 10642 10648 10652 10655 10659 10658 10657 10656 10656 10657 10659 10659 10658 10658 10658 10658 10656 10656 10660 10663 10661 10661 10661 10658 10656 10658 10657 10657 10657 10657 10658 10659 10659 10658 10657 10657 10656 10655 10654 10654 10653 10652 10651 10651 10651 10650 10649 10648 10647 10646 10645 10644 10644 10643 10642 10639 10637 10636 10635 10635 10633 10631 10630 10629 10628 10628 10628 10628 10629 10629 10630 10631 10631 10631 10631 10631 10631 10632 10633 10636 10640 10643 10644 10642
10629 10632 10635 10639 10643 10648 10651 10651 10650 10647 10647 10650 10652 10653 10653 10652 10652 10651 10650 10653 10656 10656 10656 10658 10656 10653 10652 10652 10653 10652 10651 10652 10652 10653 10654 10653 10652 10652 10651 10651 10650 10649 10648 10648 10647 10647 10647 10645 10644 10643 10641 10640 10639 10639 10638 10638 10637 10634 10632 10631 10630 10629 10628 10626 10625 10624 10623 10623 10622 10623 10623 10624 10625 10624 10624 10625 10624 10623 10623 10624 10626 10629 10631 10632 10631 10628
10617 10624 10630 10630 10633 10640 10642 10644 10645 10640 10638 10642 10645 10647 10647 10647 10647 10644 10645 10649 10649 10648 10653 10653 10649 10648 10647 10646 10647 10647 10646 10647 10647 10647 10648 10647 10646 10646 10646 10646 10645 10644 10643 10643 10642 10642 10642 10641 10639 10638 10636 10635 10633 10633 10632 10632 10631 10629 10627 10625 10625 10623 10621 10620 10621 10621 10620 10619 10618 10618 10617 10618 10618 10617 10617 10618 10618 10616 10616 10618 10619 10621 10620 10620 10620 10620
10605 10614 10622 10621 10624 10631 10633 10636 10639 10633 10630 10634 10637 10639 10640 10641 10642 10639 10639 10643 10641 10642 10648 10646 10641 10643 10643 10640 10640 10641 10641 10641 10641 10642 10642 10641 10640 10641 10641 10640 10639 10638 10638 10637 10637 10637 10637 10636 10635 10633 10632 10630 10628 10628 10626 10624 10624 10624 10621 10619 10619 10618 10616 10614 10615 10616 10616 10613 10611 10612 10611 10609 10610 10610 10610 10611 10611 10610 10610 10610 10611 10611 10612 10612 10614 10614
10594 10605 10613 10611 10614 10622 10624 10627 10630 10626 10623 10625 10629 10632 10633 10634 10636 10634 10634 10636 10635 10637 10641 10638 10635 10637 10637 10635 10634 10635 10636 10636 10635 10636 10637 10636 10635 10635 10635 10635 10633 10631 10631 10631 10630 10630 10630 10630 10630 10629 10627 10626 10624 10623 10622 10619 10617 10618 10617 10613 10612 10612 10612 10610 10609 10610 10611 10607 10604 10606 10607 10604 10602 10602 10602 10603 10603 10603 10603 10603 10603 10604 10604 10605 10606 10606
10586 10596 10603 10599 10602 10613 10617 10617 10618 10619 10616 10615 10621 10627 10627 10626 10629 10630 10630 10630 10629 10631 10633 10631 10631 10632 10631 10629 10628 10628 10630 10630 10629 10630 10631 10630 10630 10630 10629 10628 10627 10626 10625 10624 10624 10623 10623 10622 10623 10623 10622 10621 10619 10618 10617 10615 10611 10610 10611 10610 10607 10605 10605 10605 10604 10604 10605 10603 10600 10600 10604 10602 10597 10595 10595 10596 10597 10596 10595 10595 10596 10596 10597 10598 10598 10598
10577 10585 10592 10587 10589 10606 10612 10605 10605 10610 10605 10603 10615 10624 10620 10617 10622 10624 10624 10623 10623 10624 10625 10625 10627 10628 10625 10622 10622 10622 10623 10623 10623 10625 10625 10624 10624 10625 10624 10622 10620 10620 10620 10619 10618 10618 10618 10616 10616 10616 10615 10614 10614 10612 10611 10610 10607 10604 10604 10605 10604 10600 10596 10597 10599 10599 10599 10599 10596 10594 10596 10595 10592 10590 10590 10591 10591 10590 10589 10588 10588 10589 10590 10591 10591 10591
10565 10571 10579 10576 10579 10597 10602 10593 10595 10596 10591 10598 10614 10617 10610 10610 10614 10615 10616 10617 10618 10617 10617 10619 10622 10621 10618 10617 10617 10616 10615 10616 10618 10620 10618 10617 10618 10620 10619 10616 10614 10615 10615 10614 10613 10612 10612 10612 10610 10610 10609 10608 10607 10606 10604 10603 10602 10600 10598 10599 10600 10596 10590 10589 10592 10594 10594 10593 10591 10589 10588 10588 10589 10589 10587 10586 10586 10585 10583 10581 10580 10581 10581 10582 10582 10583
10553 10558 10566 10566 10570 10584 10588 10583 10581 10578 10582 10599 10609 10604 10601 10604 10605 10605 10608 10611 10612 10610 10609 10611 10615 10613 10612 10613 10611 10609 10610 10611 10613 10614 10611 10610 10613 10615 10614 10611 10609 10609 10609 10607 10607 10607 10606 10606 10605 10604 10604 10602 10601 10600 10599 10597 10596 10595 10594 10593 10595 10593 10586 10582 10584 10586 10586 10586 10585 10584 10584 10584 10587 10586 10581 10580 10581 10580 10578 10576 10575 10574 10573 10573 10574 10575
10541 10546 10554 10555 10557 10568 10574 10569 10562 10567 10582 10595 10596 10594 10595 10597 10595 10595 10599 10603 10606 10605 10602 10604 10607 10606 10606 10606 10603 10603 10606 10606 10606 10607 10604 10604 10608 10609 10607 10605 10603 10603 10603 10601 10601 10601 10600 10600 10600 10599 10598 10597 10596 10594 10593 10592 10590 10589 10589 10589 10590 10589 10584 10579 10578 10579 10579 10579 10579 10579 10579 10579 10580 10578 10574 10573 10574 10574 10573 10571 10570 10569 10567 10566 10565 10566
10528 10533 10541 10544 10544 10550 10556 10553 10554 10565 10577 10580 10583 10589 10589 10586 10585 10586 10589 10596 10600 10598 10597 10598 10599 10600 10601 10596 10592 10597 10603 10602 10599 10598 10596 10599 10604 10602 10600 10600 10598 10596 10596 10595 10595 10595 10595 10594 10594 10593 10592 10591 10590 10589 10588 10587 10585 10583 10583 10584 10584 10584 10581 10576 10573 10573 10571 10571 10572 10573 10572 10572 10571 10570 10568 10566 10566 10566 10567 10566 10564 10563 10562 10561 10559 10559
10513 10518 10524 10529 10532 10535 10538 10542 10547 10555 10562 10569 10577 10582 10579 10577 10577 10575 10578 10589 10592 10589 10591 10592 10590 10594 10594 10587 10584 10592 10598 10595 10592 10590 10589 10594 10599 10596 10593 10593 10592 10591 10590 10589 10589 10589 10588 10587 10587 10586 10585 10584 10583 10583 10582 10582 10581 10578 10576 10577 10578 10577 10575 10570 10568 10567 10566 10564 10565 10565 10565 10565 10564 10563 10561 10559 10558 10559 10560 10560 10560 10558 10556 10555 10553 10552
10498 10505 10510 10513 10518 10522 10524 10529 10532 10538 10553 10567 10569 10568 10569 10568 10566 10563 10569 10581 10583 10580 10582 10584 10582 10585 10585 10579 10579 10587 10591 10587 10584 10583 10583 10588 10592 10591 10587 10586 10585 10585 10584 10583 10583 10583 10580 10580 10581 10580 10579 10577 10576 10575 10575 10575 10576 10573 10570 10570 10571 10570 10568 10563 10560 10561 10560 10559 10558 10558 10558 10558 10557 10556 10555 10553 10552 10551 10552 10553 10554 10553 10551 10549 10547 10546
10483 10491 10495 10495 10500 10507 10511 10515 10519 10528 10548 10558 10555 10554 10557 10558 10558 10557 10560 10571 10576 10572 10572 10574 10574 10576 10575 10573 10575 10582 10583 10577 10574 10576 10579 10581 10583 10582 10581 10580 10580 10579 10577 10576 10578 10577 10573 10573 10574 10573 10572 10570 10569 10568 10568 10568 10569 10569 10565 10562 10563 10564 10563 10558 10553 10553 10554 10553 10551 10552 10552 10551 10551 10551 10550 10547 10546 10545 10545 10545 10546 10547 10546 10543 10541 10540
10467 10473 10477 10479 10485 10495 10499 10502 10508 10521 10536 10544 10543 10543 10544 10547 10550 10548 10550 10563 10570 10564 10561 10565 10566 10565 10567 10568 10570 10574 10573 10568 10566 10571 10574 10573 10573 10573 10573 10574 10574 10572 10571 10571 10571 10570 10566 10566 10568 10567 10565 10564 10562 10561 10562 10561 10561 10563 10561 10557 10555 10555 10556 10553 10549 10547 10548 10547 10546 10546 10546 10545 10545 10545 10545 10543 10540 10539 10538 10538 10539 10540 10539 10538 10537 10536
10450 10455 10462 10466 10472 10481 10486 10488 10497 10512 10526 10533 10533 10532 10533 10536 10537 10538 10545 10556 10559 10554 10554 10556 10556 10556 10558 10560 10562 10564 10564 10561 10561 10564 10565 10564 10565 10565 10564 10566 10567 10566 10565 10565 10565 10562 10559 10559 10561 10560 10558 10557 10556 10554 10554 10553 10554 10556 10555 10553 10549 10547 10548 10548 10545 10542 10542 10542 10541 10541 10540 10539 10539 10539 10539 10539 10535 10533 10533 10533 10534 10534 10534 10534 10533 10531
10435 10441 10448 10454 10459 10467 10473 10475 10483 10501 10516 10520 10519 10519 10523 10525 10528 10532 10539 10543 10545 10547 10549 10547 10546 10547 10550 10552 10553 10554 10554 10555 10556 10555 10555 10556 10558 10557 10556 10558 10559 10558 10558 10558 10559 10556 10553 10552 10554 10553 10551 10550 10549 10548 10547 10545 10546 10547 10548 10547 10544 10541 10540 10541 10540 10538 10537 10536 10535 10535 10535 10534 10533 10533 10534 10534 10531 10528 10527 10528 10529 10532 10534 10536 10534 10528
10421 10427 10435 10442 10449 10455 10459 10462 10474 10493 10506 10508 10505 10508 10513 10518 10522 10525 10527 10530 10535 10539 10539 10538 10538 10540 10541 10543 10545 10545 10547 10549 10549 10547 10546 10547 10548 10549 10550 10550 10551 10551 10550 10550 10551 10550 10547 10546 10546 10545 10544 10543 10542 10541 10540 10538 10537 10538 10539 10539 10537 10535 10534 10533 10532 10531 10531 10529 10528 10527 10528 10528 10527 10527 10528 10527 10525 10523 10522 10523 10525 10528 10531 10531 10528 10523
10408 10417 10425 10433 10438 10441 10446 10455 10469 10483 10491 10493 10492 10495 10501 10508 10513 10515 10516 10521 10525 10527 10528 10530 10530 10531 10534 10536 10537 10538 10540 10540 10539 10538 10538 10539 10539 10540 10542 10542 10542 10544 10543 10542 10543 10543 10541 10539 10539 10539 10537 10536 10535 10534 10533 10531 10530 10529 10530 10530 10529 10528 10528 10527 10525 10525 10524 10522 10520 10519 10520 10520 10520 10521 10520 10519 10518 10517 10516 10517 10518 10520 10521 10519 10516 10513
10401 10409 10415 10420 10424 10428 10438 10450 10460 10467 10474 10479 10482 10483 10489 10498 10503 10505 10507 10511 10513 10515 10519 10520 10521 10524 10527 10528 10529 10530 10530 10529 10529 10530 10531 10532 10531 10531 10532 10533 10534 10534 10534 10534 10535 10535 10533 10532 10532 10532 10531 10529 10528 10526 10525 10524 10523 10521 10521 10520 10519 10519 10520 10519 10518 10517 10516 10514 10512 10510 10511 10512 10512 10512 10512 10511 10510 10509 10509 10510 10511 10511 10511 10510 10509 10507
10393 10397 10402 10409 10415 10423 10433 10443 10450 10455 10462 10469 10473 10474 10479 10487 10493 10495 10497 10499 10502 10506 10509 10511 10513 10516 10518 10520 10520 10519 10519 10519 10521 10522 10523 10523 10523 10523 10524 10524 10524 10525 10525 10525 10525 10526 10525 10524 10524 10524 10523 10521 10520 10519 10518 10517 10515 10514 10513 10511 10509 10509 10510 10510 10509 10508 10507 10506 10504 10503 10503 10503 10503 10504 10503 10502 10501 10501 10502 10503 10504 10502 10501 10502 10503 10500
10382 10386 10393 10402 10410 10419 10428 10434 10439 10445 10452 10459 10463 10465 10470 10476 10480 10484 10488 10490 10494 10498 10500 10502 10504 10507 10509 10512 10510 10509 10510 10512 10512 10513 10514 10514 10514 10515 10515 10515 10515 10515 10516 10516 10516 10516 10515 10515 10515 10516 10514 10513 10512 10511 10510 10509 10507 10507 10507 10503 10500 10500 10500 10500 10499 10499 10498 10496 10495 10495 10494 10494 10494 10495 10495 10494 10493 10493 10495 10496 10495 10494 10494 10495 10496 10494
10373 10379 10387 10396 10403 10411 10419 10423 10427 10436 10445 10450 10454 10459 10463 10465 10469 10474 10479 10482 10486 10490 10492 10493 10495 10498 10501 10501 10500 10500 10503 10503 10503 10504 10505 10505 10506 10506 10505 10505 10506 10505 10506 10506 10507 10507 10506 10505 10506 10506 10505 10504 10503 10502 10501 10500 10498 10498 10499 10496 10493 10492 10492 10491 10490 10490 10489 10487 10485 10485 10485 10485 10485 10486 10486 10486 10486 10486 10487 10488 10487 10486 10487 10488 10488 10487
10367 10373 10380 10387 10394 10402 10408 10413 10419 10429 10437 10440 10444 10449 10452 10454 10459 10465 10470 10474 10478 10481 10483 10484 10487 10490 10490 10490 10491 10494 10494 10493 10493 10495 10495 10495 10497 10497 10496 10496 10496 10496 10496 10497 10496 10497 10497 10495 10496 10496 10496 10495 10495 10493 10492 10491 10489 10489 10489 10487 10486 10484 10483 10482 10482 10481 10480 10478 10476 10476 10476 10476 10476 10476 10477 10478 10478 10478 10478 10480 10480 10479 10480 10482 10482 10481
10360 10366 10372 10378 10386 10394 10400 10406 10412 10419 10425 10429 10434 10438 10441 10445 10452 10457 10461 10464 10467 10469 10471 10474 10477 10480 10480 10481 10483 10484 10483 10483 10483 10484 10486 10486 10487 10487 10486 10486 10486 10487 10487 10487 10487 10487 10487 10485 10486 10486 10485 10485 10485 10484 10483 10481 10480 10480 10480 10478 10478 10478 10475 10473 10473 10473 10471 10469 10468 10468 10467 10467 10467 10468 10468 10469 10470 10470 10470 10472 10472 10472 10473 10475 10475 10475
10354 10361 10365 10371 10379 10386 10392 10398 10402 10408 10415 10421 10425 10429 10433 10438 10444 10447 10450 10452 10454 10457 10461 10464 10468 10471 10471 10471 10472 10473 10473 10473 10473 10474 10476 10477 10477 10477 10477 10477 10478 10478 10478 10478 10478 10478 10477 10476 10476 10476 10475 10475 10474 10473 10472 10471 10470 10470 10470 10469 10469 10469 10468 10466 10464 10464 10462 10460 10460 10459 10459 10459 10459 10459 10459 10460 10461 10462 10463 10464 10465 10465 10466 10468 10469 10468